2016 PN1

Initial reported observation by Pan-STARRS 1, Haleakala on 2016-08-01.
(Discoverer will be defined when the object is numbered. See this note on how discoverers are determined.)

Orbit

Orbit type: Amor
Near-Earth Object
One opposition object seen prior.

Note: WebGL enabled browser required.

epoch2022-08-09.0
epoch JD2459800.5
perihelion date2020-12-05.62577
perihelion JD2459189.12577
argument of perihelion (°)341.41043
ascending node (°)344.67206
inclination (°)14.80070
eccentricity0.5668225
perihelion distance (AU)1.1497704
Tisserand w.r.t. Jupiter3.1
ΔV w.r.t. Earth (km/sec)8.1
semimajor axis (AU)2.6542709
mean anomaly (°)139.34555
mean daily motion (°/day)0.22792190
aphelion distance (AU)4.159
period (years)4.32
P-vector [x]0.83263786
P-vector [y]-0.47020095
P-vector [z]-0.29261793
Q-vector [x]0.54968544
Q-vector [y]0.63722420
Q-vector [z]0.54017704
absolute magnitude20.16
phase slope0.15
uncertainty4
referenceMPEC 2022-M82
observations used188
oppositions1
arc length (days)112
first opposition used2016
last opposition used2016
residual rms (arc-secs)0.63
perturbers coarse indicatorM-v
perturbers precise indicator003Ek
first observation date used2016-08-01.0
last observation date used2016-11-22.0
computer nameVeres
JD of orbit computation2458158.038533
perihelion JD uncertainty (days)2.1028E-05
argument of perihelion uncertainty (°)2.3421E-05
ascending node uncertainty (°)3.9045E-05
inclination uncertainty (°)6.6634E-05
eccentricity uncertainty 4.3091E-06
perihelion distance uncertainty (AU)7.8442E-07
Minimum Orbit Intersection Distances (in AU)
for orbit epoch: 2458600.5, reference: MPO438025
Mercury0.73666
Venus0.42182
Earth0.1513
Mars0.20513
Jupiter1.24781
Saturn5.12373
Uranus14.1608
Neptune26.1285

Observations

197 total observations over interval: 2016 08 01.58311 – 2016 11 22.054622
These data are available for download (format description).

Date (UT) J2000 RA J2000 Dec Magn Location Ref
2016 08 01.58311 01 14 01.135 -27 46 00.51 19.4 w F51 – Pan-STARRS 1, Haleakala MPS 722200
2016 08 01.58504 01 14 01.323 -27 45 52.21 19.4 w F51 – Pan-STARRS 1, Haleakala MPS 722200
2016 08 01.59168 01 14 01.991 -27 45 23.57 19.4 w F51 – Pan-STARRS 1, Haleakala MPS 722200
2016 08 01.59361 01 14 02.181 -27 45 15.20 19.4 w F51 – Pan-STARRS 1, Haleakala MPS 722200
2016 08 01.60218 01 14 03.033 -27 44 38.38 19.3 w F51 – Pan-STARRS 1, Haleakala MPS 722200
2016 08 01.60879 01 14 03.695 -27 44 09.74 19.5 w F51 – Pan-STARRS 1, Haleakala MPS 722200
2016 08 02.139244 01 15 03.47 -27 05 11.4 19.0 R K92 – Sutherland-LCO B MPS 722200
2016 08 02.141520 01 15 03.70 -27 05 01.2 19.0 R K92 – Sutherland-LCO B MPS 722200
2016 08 02.143216 01 15 03.87 -27 04 53.8 19.2 R K92 – Sutherland-LCO B MPS 722200
2016 08 02.37211 01 15 29.68 -26 48 11.0 19.2 V 807 – Cerro Tololo Observatory, La Serena MPS 722200
2016 08 02.37417 01 15 29.92 -26 48 02.1 19.2 V 807 – Cerro Tololo Observatory, La Serena MPS 722200
2016 08 02.37658 01 15 30.15 -26 47 51.6 18.9 V 807 – Cerro Tololo Observatory, La Serena MPS 722200
2016 08 03.33072 01 17 14.02 -25 37 16.6 19.5 V 807 – Cerro Tololo Observatory, La Serena MPS 722200
2016 08 03.33254 01 17 14.20 -25 37 08.6 19.4 V 807 – Cerro Tololo Observatory, La Serena MPS 722200
2016 08 03.33432 01 17 14.34 -25 37 00.5 19.4 V 807 – Cerro Tololo Observatory, La Serena MPS 722200
2016 08 05.41701 01 20 42.08 -22 58 36.1 19.2 V 807 – Cerro Tololo Observatory, La Serena MPS 722200
2016 08 05.41972 01 20 42.30 -22 58 23.1 19.3 V 807 – Cerro Tololo Observatory, La Serena MPS 722200
2016 08 05.42231 01 20 42.51 -22 58 11.1 19.2 V 807 – Cerro Tololo Observatory, La Serena MPS 722200
2016 08 07.33963 01 23 36.41 -20 27 25.1 19.4 V 807 – Cerro Tololo Observatory, La Serena MPS 723796
2016 08 07.34145 01 23 36.53 -20 27 16.4 19.4 V 807 – Cerro Tololo Observatory, La Serena MPS 723796
2016 08 07.34323 01 23 36.68 -20 27 08.2 19.3 V 807 – Cerro Tololo Observatory, La Serena MPS 723796
2016 08 10.35873 01 27 31.74 -16 22 23.0 18.5 R H36 – Sandlot Observatory, Scranton MPS 723796
2016 08 10.36119 01 27 31.93 -16 22 10.2 18.6 R H36 – Sandlot Observatory, Scranton MPS 723796
2016 08 10.36366 01 27 32.09 -16 21 57.6 18.8 R H36 – Sandlot Observatory, Scranton MPS 723796
2016 08 12.55169 01 29 54.27 -13 18 37.5 18.7 w T05 – ATLAS-HKO, Haleakala MPS 723796
2016 08 12.56459 01 29 54.79 -13 17 30.8 18.8 w T05 – ATLAS-HKO, Haleakala MPS 723796
2016 08 12.57676 01 29 55.38 -13 16 31.0 18.8 w T05 – ATLAS-HKO, Haleakala MPS 723796
2016 08 12.58867 01 29 55.92 -13 15 29.6 18.7 w T05 – ATLAS-HKO, Haleakala MPS 723796
2016 08 15.360498 01 32 24.02 -09 19 06.0 18.3 R 705 – Apache Point MPS 723796
2016 08 15.361513 01 32 24.05 -09 19 00.7 18.4 R 705 – Apache Point MPS 723796
2016 08 15.362527 01 32 24.09 -09 18 55.4 18.2 R 705 – Apache Point MPS 723796
2016 08 18.347748 01 34 21.57 -05 01 41.3 18.5 V H21 – Astronomical Research Observatory, Westfield MPS 725079
2016 08 18.352591 01 34 21.66 -05 01 16.0 18.9 V H21 – Astronomical Research Observatory, Westfield MPS 725079
2016 08 18.358410 01 34 21.76 -05 00 46.1 18.7 V H21 – Astronomical Research Observatory, Westfield MPS 725079
2016 08 21.343563 01 35 38.32 -00 44 04.9 18.8 V H21 – Astronomical Research Observatory, Westfield MPS 725691
2016 08 21.346485 01 35 38.33 -00 43 50.0 18.9 V H21 – Astronomical Research Observatory, Westfield MPS 725691
2016 08 21.349500 01 35 38.34 -00 43 34.5 18.7 V H21 – Astronomical Research Observatory, Westfield MPS 725691
2016 08 21.353106 01 35 38.37 -00 43 16.1 18.7 V H21 – Astronomical Research Observatory, Westfield MPS 725691
2016 08 23.387697 01 36 06.21 +02 09 31.2 18.5 V H21 – Astronomical Research Observatory, Westfield MPS 725079
2016 08 23.390795 01 36 06.20 +02 09 47.0 18.8 V H21 – Astronomical Research Observatory, Westfield MPS 725079
2016 08 24.26810 01 36 14.51 +03 23 27.9   691 – Steward Observatory, Kitt Peak-Spacewatch MPS 725079
2016 08 24.27038 01 36 14.52 +03 23 39.4   691 – Steward Observatory, Kitt Peak-Spacewatch MPS 725079
2016 08 24.27269 01 36 14.50 +03 23 52.0   691 – Steward Observatory, Kitt Peak-Spacewatch MPS 725079
2016 08 25.28109 01 36 17.23 +04 47 40.7   691 – Steward Observatory, Kitt Peak-Spacewatch MPS 725079
2016 08 25.29151 01 36 17.14 +04 48 33.0   691 – Steward Observatory, Kitt Peak-Spacewatch MPS 725079
2016 08 25.30198 01 36 17.07 +04 49 24.7   691 – Steward Observatory, Kitt Peak-Spacewatch MPS 725079
2016 08 25.33388 01 36 16.76 +04 52 03.9 19.3 V 691 – Steward Observatory, Kitt Peak-Spacewatch MPS 725079
2016 08 25.33621 01 36 16.71 +04 52 15.1 19.1 V 691 – Steward Observatory, Kitt Peak-Spacewatch MPS 725079
2016 08 25.33852 01 36 16.65 +04 52 26.6 19.3 V 691 – Steward Observatory, Kitt Peak-Spacewatch MPS 725079
2016 08 25.97545 01 36 15.78 +05 44 41.9 18.7 R A17 – Guidestar Observatory, Weinheim MPS 725079
2016 08 25.98721 01 36 15.64 +05 45 39.9 18.5 R A17 – Guidestar Observatory, Weinheim MPS 725079
2016 08 25.99895 01 36 15.53 +05 46 38.0 18.5 R A17 – Guidestar Observatory, Weinheim MPS 725079
2016 08 27.11882 01 36 08.11 +07 17 49.0 18.8 R 160 – Castelmartini MPS 725691
2016 08 27.12008 01 36 08.05 +07 17 54.9 18.6 R 160 – Castelmartini MPS 725691
2016 08 27.12162 01 36 08.00 +07 18 02.5 18.6 R 160 – Castelmartini MPS 725691
2016 08 28.03797 01 35 59.46 +08 31 25.2   246 – Klet Observatory-KLENOT MPS 725691
2016 08 28.03818 01 35 59.46 +08 31 26.5   246 – Klet Observatory-KLENOT MPS 725691
2016 08 28.03836 01 35 59.44 +08 31 27.2   246 – Klet Observatory-KLENOT MPS 725691
2016 08 28.03859 01 35 59.46 +08 31 28.6   246 – Klet Observatory-KLENOT MPS 725691
2016 08 28.03886 01 35 59.50 +08 31 29.3   246 – Klet Observatory-KLENOT MPS 725691
2016 08 28.03918 01 35 59.45 +08 31 31.2   246 – Klet Observatory-KLENOT MPS 725691
2016 08 28.03965 01 35 59.42 +08 31 33.4   246 – Klet Observatory-KLENOT MPS 725691
2016 08 28.04018 01 35 59.43 +08 31 36.2   246 – Klet Observatory-KLENOT MPS 725691
2016 08 28.04041 01 35 59.42 +08 31 37.1   246 – Klet Observatory-KLENOT MPS 725691
2016 08 28.07093 01 35 58.87 +08 34 04.5   204 – Schiaparelli Observatory MPS 727841
2016 08 28.07612 01 35 58.77 +08 34 29.3   204 – Schiaparelli Observatory MPS 727841
2016 08 28.08162 01 35 58.63 +08 34 55.7 18.7 R 204 – Schiaparelli Observatory MPS 727841
2016 08 28.09810 01 35 58.08 +08 36 14.2 18.0 R 106 – Crni Vrh MPS 725691
2016 08 28.10568 01 35 57.90 +08 36 49.9 18.1 R 106 – Crni Vrh MPS 725691
2016 08 28.11334 01 35 57.72 +08 37 26.7 18.3 R 106 – Crni Vrh MPS 725691
2016 08 28.12101 01 35 57.53 +08 38 03.0 18.0 R 106 – Crni Vrh MPS 725691
2016 08 28.396229 01 35 53.93 +08 59 56.4 19.4 V H21 – Astronomical Research Observatory, Westfield MPS 730037
2016 08 28.405202 01 35 53.71 +09 00 39.0 19.6 V H21 – Astronomical Research Observatory, Westfield MPS 730037
2016 08 28.411725 01 35 53.54 +09 01 09.9 19.2 V H21 – Astronomical Research Observatory, Westfield MPS 730037
2016 08 29.404728 01 35 37.43 +10 19 04.6 19.0 V H21 – Astronomical Research Observatory, Westfield MPS 730037
2016 08 29.407849 01 35 37.33 +10 19 19.1 19.0 V H21 – Astronomical Research Observatory, Westfield MPS 730037
2016 08 29.410871 01 35 37.25 +10 19 33.2 19.0 V H21 – Astronomical Research Observatory, Westfield MPS 730037
2016 08 29.41384 01 35 37.94 +10 19 53.0 18.3 V 703 – Catalina Sky Survey MPS 725691
2016 08 29.413896 01 35 37.15 +10 19 47.3 18.9 V H21 – Astronomical Research Observatory, Westfield MPS 730037
2016 08 29.42262 01 35 37.68 +10 20 31.8 18.7 V 703 – Catalina Sky Survey MPS 725691
2016 08 29.42699 01 35 37.50 +10 20 53.1 18.6 V 703 – Catalina Sky Survey MPS 725691
2016 08 30.332145 01 35 19.19 +11 30 35.6 18.9 V H21 – Astronomical Research Observatory, Westfield MPS 730037
2016 08 30.335940 01 35 19.06 +11 30 53.1 18.9 V H21 – Astronomical Research Observatory, Westfield MPS 730037
2016 08 30.339925 01 35 18.92 +11 31 11.4 18.9 V H21 – Astronomical Research Observatory, Westfield MPS 730037
